{"data":{"norad_id":66737,"epoch":"2026-05-25T03:35:35.261952Z","epoch_age_seconds":62011,"freshness":"FRESH","line1":"1 66737U 25276BZ  26145.14971368  .00006147  00000+0  28709-3 0  9994","line2":"2 66737  97.4240 219.3329 0003294  55.8247 304.3300 15.20171386 26189","mean_motion":15.20171386,"eccentricity":0.0003294,"inclination_deg":97.424,"raan_deg":219.3329,"arg_perigee_deg":55.8247,"mean_anomaly_deg":304.33,"bstar":0.00028709,"rev_number":2618,"period_min":94.726161356651,"perigee_km":503.05578680309,"apogee_km":507.59061038192,"semimajor_km":6883.4601985925,"source":"CELESTRAK","updated_at":"2026-05-25T13:38:13.374191Z"}}